Regional Weather Roundup
Issued by NWS Cleveland, OH

Home | Current Version | Previous Version | Graphics & Text | Print | Product List | Glossary On
Versions: 1 2 3 4 5 6 7 8 9 10 11 12 13 14 15 16 17 18 19 20 21 22 23 24 25 26 27 28 29 30 31 32 33 34 35 36 37 38 39 40 41 42 43 44 45 46 47 48 49 50
000
ASUS41 KCLE 050600
RWRCLE
OHIO REGIONAL WEATHER ROUNDUP
NATIONAL WEATHER SERVICE WILMINGTON, OH
200 AM EDT SUN JUL 05 2015

NOTE: "FAIR" INDICATES FEW OR NO CLOUDS BELOW 12,000 FEET WITH NO
SIGNIFICANT WEATHER AND/OR OBSTRUCTIONS TO VISIBILITY.

OHZ001>008-015>018-024>027-034-035-043-044-050700-
   NORTHWEST OHIO

CITY           SKY/WX    TMP DP  RH WIND       PRES   REMARKS
DEFIANCE       CLEAR     62  59  90 CALM      30.07S
FINDLAY        CLEAR     65  58  78 CALM      30.07S
TOLEDO EXPRESS CLEAR     59  55  87 CALM      30.07S
TOLEDO EXEC    CLEAR     63  52  67 S3        30.08S
LIMA           PTCLDY    63  58  83 S3        30.08S
$$

OHZ009>014-019>023-028>033-038-089-050700-
   NORTHEAST OHIO

CITY           SKY/WX    TMP DP  RH WIND       PRES   REMARKS
CLE-HOPKINS    CLEAR     61  53  75 CALM      30.11R
CLE-LAKEFRONT  CLEAR     64  52  64 SE6       30.08R
CUY CO. ARPT   NOT AVBL
LORAIN-ELYRIA  CLEAR     58  55  90 CALM      30.10R
ASHTABULA      CLEAR     56  55  97 CALM      30.11R FOG
AKRON-CANTON   CLEAR     61  52  72 CALM      30.10S
WOOSTER        NOT AVBL
MANSFIELD      PTCLDY    59  57  93 CALM      30.10S FOG
YOUNGSTOWN     CLEAR     54  52  93 E3        30.10S
$$

OHZ042-051>053-060>062-070>072-077>081-050700-
  SOUTHWEST OHIO

CITY           SKY/WX    TMP DP  RH WIND       PRES   REMARKS
CINC-COVINGTON CLOUDY    70  59  68 E3        30.07R
CINC-LUNKEN    CLOUDY    63  62  97 CALM      30.07R FOG
HAMILTON       CLOUDY    62  60  93 CALM      30.07S FOG
DAYTON         NOT AVBL
WRIGHT-PAT AFB CLOUDY    64  60  89 CALM      30.07S
DAYTON GENERAL CLOUDY    67  57  70 E6        30.07S
WILMINGTON     CLOUDY    63  58  83 CALM      30.07F
$$

OHZ036-037-039>041-045>050-054>059-063>069-073>076-082>088-050700-
  CENTRAL AND SOUTHEAST OHIO

CITY           SKY/WX    TMP DP  RH WIND       PRES   REMARKS
COLUMBUS       CLOUDY    63  58  83 CALM      30.07S
OSU AIRPORT    MOCLDY    63  56  78 CALM      30.08S
BOLTON FIELD   NOT AVBL
RICKENBACK AFB NOT AVBL
NEWARK         MOCLDY    59  57  93 CALM      30.08S FOG
MARION         PTCLDY    62  58  86 CALM      30.09S FOG
LANCASTER      MOCLDY    58  56  93 CALM      30.08S FOG
ZANESVILLE     MOCLDY    61  58  90 CALM      30.08S FOG
NEW PHILLY     PTCLDY    58  56  93 CALM      30.10S
$$



USA.gov is the U.S. government's official web portal to all federal, state and local government web resources and services.